Change the Weather History Date:

Saturday, June 29, 2013

  Actual Average Record
Temperature  
Mean Temperature 76 °F 72 °F  
Max Temperature 92 °F 87 °F 105 °F (2002)
Min Temperature 59 °F 56 °F 44 °F (2008)
Degree Days  
Heating Degree Days 0 1  
Month to date heating degree days 21 59  
Since 1 June heating degree days 21 59  
Since 1 July heating degree days 6306 6614  
Cooling Degree Days 11 7  
Month to date cooling degree days 188 119  
Year to date cooling degree days 242 142  
Since 1 June cooling degree days 188 119  
Growing Degree Days 24 (Base 50)    
Moisture  
Dew Point 53 °F    
Average Humidity 53    
Maximum Humidity 78    
Minimum Humidity 27    
Precipitation  
Precipitation 0.00 in 0.07 in 1.85 in (1910)
Month to date precipitation 1.54 2.78  
Year to date precipitation 6.18 9.10  
Snow  
Snow 0.00 in 0.00 in - ()
Month to date snowfall 0.0 0.0  
Since 1 July snowfall 43.9 42.1  
Snow Depth 0.00 in    
Sea Level Pressure  
Sea Level Pressure 30.04 in    
Wind  
Wind Speed 7 mph (NE)    
Max Wind Speed 20 mph    
Max Gust Speed 25 mph    
Visibility 10 miles    
Events      
T = Trace of Precipitation, MM = Missing Value Source: NWS Daily Summary

Daily Weather History Graph

Daily Weather History Graph

Search for Another Location

Airport or City:

Trip Planner

Search our weather history database for the weather conditions in past years. The results will help you decide how hot, cold, wet, or windy it might be!

Date:

Astronomy

Jun. 29, 2013 Rise Set
Actual Time 5:22 AM MDT 8:33 PM MDT
Civil Twilight 4:47 AM MDT 9:07 PM MDT
Nautical Twilight 4:03 AM MDT 9:51 PM MDT
Astronomical Twilight 3:11 AM MDT 10:44 PM MDT
Moon No Moon Rise 12:43 PM MDT (6/29)
Length of Visible Light 16h 19m
Length of Day
15h 11m
Waning Gibbous, 55% of the Moon is Illuminated
Jun 29
Waning Gibbous
Jun 29
Last Quarter
Jul 8
New
Jul 15
First Quarter
Jul 22
Full

Hourly Weather History & Observations

Time (MDT) Temp. Heat Index Dew Point Humidity Pressure Visibility Wind Dir Wind Speed Gust Speed Precip Events Conditions
12:53 AM 70.0 °F - 53.1 °F 55% 30.09 in 10.0 mi ENE 6.9 mph - N/A   Mostly Cloudy
1:53 AM 66.9 °F - 55.0 °F 66% 30.09 in 10.0 mi NNE 5.8 mph - N/A   Mostly Cloudy
2:53 AM 66.0 °F - 55.9 °F 70% 30.09 in 10.0 mi Calm Calm - N/A   Overcast
3:53 AM 64.0 °F - 55.9 °F 75% 30.08 in 10.0 mi Calm Calm - N/A   Partly Cloudy
4:53 AM 63.0 °F - 55.0 °F 75% 30.07 in 10.0 mi Calm Calm - N/A   Clear
5:53 AM 61.0 °F - 54.0 °F 78% 30.08 in 10.0 mi NNE 4.6 mph - N/A   Clear
6:53 AM 69.1 °F - 55.0 °F 61% 30.06 in 10.0 mi Calm Calm - N/A   Clear
7:53 AM 72.0 °F - 55.0 °F 55% 30.06 in 10.0 mi Calm Calm - N/A   Clear
8:53 AM 75.9 °F - 55.0 °F 48% 30.06 in 10.0 mi North 3.5 mph - N/A   Clear
9:53 AM 79.0 °F - 54.0 °F 42% 30.06 in 10.0 mi NW 5.8 mph - N/A   Clear
10:53 AM 82.0 °F 81.4 °F 55.0 °F 39% 30.05 in 10.0 mi North 5.8 mph - N/A   Clear
11:53 AM 84.9 °F 83.2 °F 53.1 °F 33% 30.04 in 10.0 mi NW 8.1 mph - N/A   Clear
12:53 PM 88.0 °F 85.7 °F 53.1 °F 30% 30.01 in 10.0 mi NW 11.5 mph - N/A   Scattered Clouds
1:53 PM 88.0 °F - 52.0 °F 29% 29.99 in 10.0 mi NNE 9.2 mph - N/A   Mostly Cloudy
2:53 PM 90.0 °F 87.5 °F 53.1 °F 28% 29.96 in 10.0 mi NNE 11.5 mph 17.3 mph N/A   Scattered Clouds
3:53 PM 89.1 °F - 52.0 °F 28% 29.96 in 10.0 mi NE 8.1 mph - N/A   Partly Cloudy
4:53 PM 88.0 °F - 52.0 °F 29% 29.96 in 10.0 mi ENE 10.4 mph 19.6 mph N/A   Partly Cloudy
5:53 PM 87.1 °F 84.9 °F 53.1 °F 31% 29.96 in 10.0 mi ENE 13.8 mph 23.0 mph N/A   Unknown
6:53 PM 84.0 °F 82.6 °F 54.0 °F 35% 29.96 in 10.0 mi ENE 12.7 mph 21.9 mph N/A   Unknown
7:53 PM 78.1 °F - 54.0 °F 43% 30.00 in 10.0 mi ENE 15.0 mph - N/A   Clear
8:53 PM 73.0 °F - 53.1 °F 49% 30.01 in 10.0 mi ENE 9.2 mph - N/A   Clear
9:53 PM 70.0 °F - 51.1 °F 51% 30.03 in 10.0 mi East 11.5 mph - N/A   Clear
10:53 PM 66.0 °F - 50.0 °F 56% 30.06 in 10.0 mi East 5.8 mph - N/A   Clear
11:53 PM 64.9 °F - 46.9 °F 52% 30.07 in 10.0 mi South 3.5 mph - N/A   Partly Cloudy